SV2MJJ Weather Reports


Display with metric or nautical units.
time (UTC)temp
F
wind
direction
speed
MPH
gust
MPH
rain 1hr
in
rain 24hr
in
rain mn
in
humidity
%
barometer
mb
20260507114056 66 134 3.0 9.0 0.00 0.00 0.00 76 1013.6
20260507114008 66 97 2.0 7.0 0.00 0.00 0.00 76 1014.0
20260507113657 66 146 2.0 7.0 0.00 0.00 0.00 75 1014.0
20260507113611 66 113 2.0 6.0 0.00 0.00 0.00 76 1014.1
20260507113534 66 119 1.0 6.0 0.00 0.00 0.00 75 1014.1
20260507113517 66 129 1.0 6.0 0.00 0.00 0.00 75 1014.1
20260507113417 66 123 1.0 6.0 0.00 0.00 0.00 74 1014.3
20260507112749 66 117 1.0 6.0 0.00 0.00 0.00 75 1014.4
20260507112139 67 109 0.0 1.0 0.00 0.00 0.00 76 1014.5
20260507112036 67 111 0.0 1.0 0.00 0.00 0.00 76 1014.5
20260507111948 67 132 0.0 0.0 0.00 0.00 0.00 77 1014.5
20260507111229 67 351 0.0 0.0 0.00 0.00 0.00 79 1014.5
20260507111102 67 351 0.0 0.0 0.00 0.00 0.00 79 1014.5
20260507111027 67 351 0.0 0.0 0.00 0.00 0.00 79 1014.5
20260507110917 66 351 0.0 0.0 0.00 0.00 0.00 79 1014.5
20260507110829 66 351 0.0 0.0 0.00 0.00 0.00 79 1014.4
20260507110427 66 351 0.0 0.0 0.00 0.00 0.00 79 1014.5
20260507110227 66 351 0.0 3.0 0.00 0.00 0.00 78 1014.6
20260507110110 66 351 0.0 4.0 0.00 0.00 0.00 78 1014.6
20260507110025 66 351 0.0 4.0 0.00 0.00 0.00 78 1014.6
20260507105836 66 351 0.0 4.0 0.00 0.00 0.00 78 1014.6
20260507105609 66 351 0.0 4.0 0.00 0.00 0.00 77 1014.6
20260507105419 66 351 0.0 4.0 0.00 0.00 0.00 76 1014.6
20260507105221 67 351 0.0 3.0 0.00 0.00 0.00 76 1014.6
20260507105141 67 351 0.0 0.0 0.00 0.00 0.00 76 1014.6
20260507105118 67 338 0.0 0.0 0.00 0.00 0.00 76 1014.6
20260507104602 67 1 0.0 0.0 0.00 0.00 0.00 76 1014.6
20260507104419 67 1 0.0 4.0 0.00 0.00 0.00 75 1014.6
20260507104324 67 1 0.0 4.0 0.00 0.00 0.00 74 1014.6
20260507104253 67 1 0.0 4.0 0.00 0.00 0.00 74 1014.7
20260507103813 67 5 0.0 4.0 0.00 0.00 0.00 72 1014.6
20260507103604 67 13 0.0 4.0 0.00 0.00 0.00 72 1014.4
20260507103411 67 18 0.0 4.0 0.00 0.00 0.00 72 1014.5
20260507103211 67 18 0.0 4.0 0.00 0.00 0.00 72 1014.4
20260507103102 67 18 0.0 4.0 0.00 0.00 0.00 72 1014.4
20260507103011 67 18 0.0 4.0 0.00 0.00 0.00 72 1014.4
20260507102813 67 18 0.0 4.0 0.00 0.00 0.00 72 1014.3
20260507102600 67 18 1.0 4.0 0.00 0.00 0.00 72 1014.4
20260507102410 67 18 0.0 4.0 0.00 0.00 0.00 72 1014.4
20260507102211 67 18 0.0 4.0 0.00 0.00 0.00 71 1014.5
20260507102102 67 18 0.0 4.0 0.00 0.00 0.00 70 1014.5
20260507102010 67 18 0.0 4.0 0.00 0.00 0.00 70 1014.6
20260507101812 67 22 0.0 4.0 0.00 0.00 0.00 70 1014.5
20260507101614 67 20 0.0 0.0 0.00 0.00 0.00 70 1014.6
20260507101602 68 20 0.0 0.0 0.00 0.00 0.00 70 1014.6
20260507101409 68 169 0.0 0.0 0.00 0.00 0.00 70 1014.5
20260507101319 68 169 0.0 0.0 0.00 0.00 0.00 70 1014.5
20260507101251 68 169 0.0 0.0 0.00 0.00 0.00 70 1014.5
20260507100914 68 169 0.0 0.0 0.00 0.00 0.00 69 1014.5
20260507100606 68 169 0.0 0.0 0.00 0.00 0.00 70 1014.4
20260507100417 68 169 0.0 0.0 0.00 0.00 0.00 69 1014.4
20260507100327 68 169 0.0 0.0 0.00 0.00 0.00 69 1014.4
20260507100300 68 169 0.0 0.0 0.00 0.00 0.00 69 1014.3
20260507095917 68 169 0.0 0.0 0.00 0.00 0.00 69 1014.2
20260507095822 68 169 0.0 0.0 0.00 0.00 0.00 69 1014.2
20260507095700 68 169 0.0 0.0 0.00 0.00 0.00 69 1014.2
20260507095335 68 169 0.0 0.0 0.00 0.00 0.00 69 1014.2
20260507095305 68 169 0.0 0.0 0.00 0.00 0.00 69 1014.2
20260507095214 68 169 0.0 0.0 0.00 0.00 0.00 68 1014.2
20260507095127 68 169 0.0 0.0 0.00 0.00 0.00 68 1014.2
20260507094522 68 169 0.0 0.0 0.00 0.00 0.00 67 1014.2
20260507093912 68 169 0.0 0.0 0.00 0.00 0.00 66 1014.2
20260507093606 68 169 0.0 0.0 0.00 0.00 0.00 65 1014.3
20260507093406 68 169 0.0 0.0 0.00 0.00 0.00 66 1014.2
20260507093206 68 169 0.0 0.0 0.00 0.00 0.00 66 1014.2
20260507093103 68 169 0.0 0.0 0.00 0.00 0.00 65 1014.3
20260507093014 68 169 0.0 0.0 0.00 0.00 0.00 65 1014.2
20260507092807 68 169 0.0 0.0 0.00 0.00 0.00 65 1014.2
20260507092606 68 169 0.0 0.0 0.00 0.00 0.00 65 1014.3
20260507092407 68 169 0.0 0.0 0.00 0.00 0.00 64 1014.3
20260507092206 68 169 0.0 0.0 0.00 0.00 0.00 63 1014.3
20260507092101 68 169 0.0 0.0 0.00 0.00 0.00 64 1014.3
20260507092009 68 169 0.0 0.0 0.00 0.00 0.00 65 1014.3
20260507091805 68 169 0.0 0.0 0.00 0.00 0.00 65 1014.2
20260507091606 68 169 0.0 0.0 0.00 0.00 0.00 65 1014.3
20260507091507 68 169 0.0 0.0 0.00 0.00 0.00 65 1014.2
20260507091101 68 169 0.0 0.0 0.00 0.00 0.00 64 1014.3
20260507091012 68 188 0.0 0.0 0.00 0.00 0.00 64 1014.3
20260507090914 68 188 0.0 0.0 0.00 0.00 0.00 63 1014.3
20260507090605 68 296 0.0 0.0 0.00 0.00 0.00 62 1014.3
20260507090406 68 296 0.0 0.0 0.00 0.00 0.00 59 1014.2
20260507090206 68 296 0.0 0.0 0.00 0.00 0.00 59 1014.3
20260507090101 68 296 0.0 0.0 0.00 0.00 0.00 58 1014.2
20260507090009 68 296 0.0 0.0 0.00 0.00 0.00 59 1014.2
20260507085911 69 296 0.0 0.0 0.00 0.00 0.00 58 1014.2
20260507085818 69 296 0.0 0.0 0.00 0.00 0.00 59 1014.1
20260507085437 69 296 0.0 0.0 0.00 0.00 0.00 59 1014.0
20260507085316 69 296 0.0 0.0 0.00 0.00 0.00 58 1014.0
20260507085246 69 296 0.0 0.0 0.00 0.00 0.00 57 1014.0
20260507084806 69 296 0.0 0.0 0.00 0.00 0.00 56 1014.0
20260507084655 69 296 0.0 0.0 0.00 0.00 0.00 55 1014.0
20260507084604 69 296 0.0 0.0 0.00 0.00 0.00 55 1014.0
20260507084240 69 296 0.0 0.0 0.00 0.00 0.00 57 1013.9
20260507084213 69 296 0.0 0.0 0.00 0.00 0.00 57 1013.8
20260507084123 69 76 0.0 0.0 0.00 0.00 0.00 57 1013.7
20260507083407 69 92 0.0 0.0 0.00 0.00 0.00 56 1013.5
20260507083207 69 92 0.0 0.0 0.00 0.00 0.00 57 1013.5
20260507083111 69 93 0.0 0.0 0.00 0.00 0.00 57 1013.5
20260507083039 69 92 0.0 0.0 0.00 0.00 0.00 57 1013.5
20260507082945 69 92 0.0 0.0 0.00 0.00 0.00 57 1013.5
20260507082637 69 93 0.0 0.0 0.00 0.00 0.00 58 1013.4
20260507082545 69 93 0.0 0.0 0.00 0.00 0.00 58 1013.4
20260507082450 69 93 0.0 0.0 0.00 0.00 0.00 57 1013.3
20260507082419 69 93 0.0 0.0 0.00 0.00 0.00 58 1013.3
20260507081611 69 93 0.0 0.0 0.00 0.00 0.00 59 1013.2
20260507081459 69 93 0.0 0.0 0.00 0.00 0.00 60 1013.1
20260507081412 69 93 0.0 0.0 0.00 0.00 0.00 60 1013.1
20260507081342 69 93 0.0 0.0 0.00 0.00 0.00 61 1013.1
20260507081319 69 93 0.0 0.0 0.00 0.00 0.00 61 1013.1
20260507081221 69 93 0.0 0.0 0.00 0.00 0.00 61 1013.1
20260507080205 68 93 0.0 0.0 0.00 0.00 0.00 62 1013.0
20260507080008 68 93 0.0 0.0 0.00 0.00 0.00 62 1013.1
20260507075818 68 93 0.0 0.0 0.00 0.00 0.00 61 1013.0
20260507075717 68 93 0.0 0.0 0.00 0.00 0.00 61 1012.9
20260507075624 68 93 0.0 0.0 0.00 0.00 0.00 62 1013.0
20260507075251 68 92 0.0 0.0 0.00 0.00 0.00 63 1012.8
20260507075154 68 93 0.0 0.0 0.00 0.00 0.00 63 1012.9
20260507075058 68 93 0.0 0.0 0.00 0.00 0.00 65 1012.8
20260507075009 68 93 0.0 0.0 0.00 0.00 0.00 66 1012.8
20260507074708 68 93 0.0 0.0 0.00 0.00 0.00 66 1012.8
20260507074340 67 92 0.0 0.0 0.00 0.00 0.00 66 1012.7
20260507074314 67 92 0.0 0.0 0.00 0.00 0.00 66 1012.7
20260507073915 67 93 0.0 0.0 0.00 0.00 0.00 66 1012.7
20260507073524 67 93 0.0 0.0 0.00 0.00 0.00 68 1012.8
20260507072912 67 93 0.0 0.0 0.00 0.00 0.00 68 1012.7
20260507072818 67 93 0.0 0.0 0.00 0.00 0.00 68 1012.7
20260507072406 67 93 0.0 0.0 0.00 0.00 0.00 68 1012.6
20260507072207 67 93 0.0 0.0 0.00 0.00 0.00 68 1012.6
20260507072104 66 93 0.0 0.0 0.00 0.00 0.00 69 1012.6
20260507072006 66 93 0.0 0.0 0.00 0.00 0.00 69 1012.6
20260507071807 66 92 0.0 0.0 0.00 0.00 0.00 69 1012.7
20260507071606 66 92 0.0 0.0 0.00 0.00 0.00 69 1012.7
20260507071407 66 92 0.0 0.0 0.00 0.00 0.00 69 1012.7
20260507071207 66 92 0.0 0.0 0.00 0.00 0.00 69 1012.7
20260507071101 66 92 0.0 0.0 0.00 0.00 0.00 69 1012.7
20260507071007 66 92 0.0 0.0 0.00 0.00 0.00 70 1012.7
20260507070815 66 92 0.0 0.0 0.00 0.00 0.00 70 1012.7
20260507070721 66 92 0.0 0.0 0.00 0.00 0.00 70 1012.6
20260507070619 66 140 0.0 0.0 0.00 0.00 0.00 70 1012.6
20260507070527 66 140 0.0 0.0 0.00 0.00 0.00 70 1012.7
20260507065909 65 255 0.0 0.0 0.00 0.00 0.00 70 1012.7
20260507065816 65 255 0.0 0.0 0.00 0.00 0.00 70 1012.6
20260507065507 65 255 0.0 0.0 0.00 0.00 0.00 70 1012.7
20260507065125 65 255 0.0 0.0 0.00 0.00 0.00 70 1012.7
20260507065007 65 255 0.0 0.0 0.00 0.00 0.00 70 1012.7
20260507064805 65 255 0.0 0.0 0.00 0.00 0.00 69 1012.7
20260507064606 65 257 0.0 0.0 0.00 0.00 0.00 70 1012.8
20260507064408 65 257 0.0 0.0 0.00 0.00 0.00 70 1012.7
20260507064206 65 257 0.0 0.0 0.00 0.00 0.00 70 1012.8
20260507064102 65 257 0.0 0.0 0.00 0.00 0.00 69 1012.7
20260507064007 65 257 0.0 0.0 0.00 0.00 0.00 69 1012.7
20260507063808 64 257 0.0 0.0 0.00 0.00 0.00 69 1012.7
20260507063605 64 257 0.0 0.0 0.00 0.00 0.00 70 1012.7
20260507063405 64 257 0.0 0.0 0.00 0.00 0.00 70 1012.7
20260507063207 64 257 0.0 0.0 0.00 0.00 0.00 69 1012.7
20260507063104 64 257 0.0 0.0 0.00 0.00 0.00 69 1012.8
20260507063007 64 257 0.0 0.0 0.00 0.00 0.00 69 1012.8
20260507062833 64 257 0.0 0.0 0.00 0.00 0.00 69 1012.8
20260507062732 65 257 0.0 0.0 0.00 0.00 0.00 68 1012.8
20260507062338 65 257 0.0 0.0 0.00 0.00 0.00 68 1012.7
20260507062306 65 257 0.0 0.0 0.00 0.00 0.00 69 1012.8
20260507062241 65 257 0.0 0.0 0.00 0.00 0.00 69 1012.7
20260507062153 65 257 0.0 0.0 0.00 0.00 0.00 68 1012.8
20260507061406 65 257 0.0 0.0 0.00 0.00 0.00 69 1012.7
20260507061205 65 257 0.0 0.0 0.00 0.00 0.00 69 1012.8
20260507061102 65 257 0.0 0.0 0.00 0.00 0.00 69 1012.8
20260507061009 65 257 0.0 0.0 0.00 0.00 0.00 68 1012.8
20260507060812 65 257 0.0 0.0 0.00 0.00 0.00 68 1012.8
20260507060708 65 257 0.0 0.0 0.00 0.00 0.00 68 1012.7
20260507060622 65 257 0.0 0.0 0.00 0.00 0.00 68 1012.7
20260507060528 65 257 0.0 0.0 0.00 0.00 0.00 69 1012.7
20260507060226 65 257 0.0 0.0 0.00 0.00 0.00 68 1012.7
20260507060138 65 257 0.0 0.0 0.00 0.00 0.00 68 1012.6
20260507055405 65 257 0.0 0.0 0.00 0.00 0.00 68 1012.6
20260507055206 65 257 0.0 0.0 0.00 0.00 0.00 68 1012.7
20260507055103 65 257 0.0 0.0 0.00 0.00 0.00 68 1012.7
20260507055008 65 257 0.0 0.0 0.00 0.00 0.00 68 1012.7
20260507054805 65 257 0.0 0.0 0.00 0.00 0.00 68 1012.7
20260507054605 65 257 0.0 0.0 0.00 0.00 0.00 67 1012.6
20260507054408 65 257 0.0 0.0 0.00 0.00 0.00 67 1012.6
20260507054206 64 257 0.0 0.0 0.00 0.00 0.00 67 1012.6
20260507054131 64 257 0.0 0.0 0.00 0.00 0.00 67 1012.6
20260507054107 64 257 0.0 0.0 0.00 0.00 0.00 66 1012.6
20260507054011 64 257 0.0 0.0 0.00 0.00 0.00 67 1012.6
20260507053705 64 257 0.0 0.0 0.00 0.00 0.00 67 1012.6
20260507053311 64 257 0.0 0.0 0.00 0.00 0.00 66 1012.6
20260507053244 64 257 0.0 0.0 0.00 0.00 0.00 66 1012.5
20260507052808 64 257 0.0 0.0 0.00 0.00 0.00 66 1012.5
20260507052629 64 257 0.0 0.0 0.00 0.00 0.00 66 1012.4
20260507052537 64 257 0.0 0.0 0.00 0.00 0.00 66 1012.4
20260507052443 64 257 0.0 0.0 0.00 0.00 0.00 66 1012.4
20260507052415 63 257 0.0 0.0 0.00 0.00 0.00 66 1012.4
20260507052350 63 257 0.0 0.0 0.00 0.00 0.00 66 1012.4
20260507052248 63 257 0.0 0.0 0.00 0.00 0.00 67 1012.4
20260507052200 63 257 0.0 0.0 0.00 0.00 0.00 67 1012.4
20260507051828 63 257 0.0 0.0 0.00 0.00 0.00 68 1012.3
20260507051456 62 257 0.0 0.0 0.00 0.00 0.00 68 1012.2
20260507051429 62 257 0.0 0.0 0.00 0.00 0.00 68 1012.3
20260507050405 62 257 0.0 0.0 0.00 0.00 0.00 69 1012.1
20260507050207 62 257 0.0 0.0 0.00 0.00 0.00 70 1012.2
20260507050104 62 257 0.0 0.0 0.00 0.00 0.00 70 1012.1
20260507050009 61 257 0.0 0.0 0.00 0.00 0.00 70 1012.1
20260507045808 61 257 0.0 0.0 0.00 0.00 0.00 71 1012.1
20260507045606 61 257 0.0 0.0 0.00 0.00 0.00 71 1012.1
20260507045408 61 257 0.0 0.0 0.00 0.00 0.00 71 1012.1
20260507045205 61 257 0.0 0.0 0.00 0.00 0.00 71 1012.1
20260507045103 61 257 0.0 0.0 0.00 0.00 0.00 71 1012.0
20260507045007 61 257 0.0 0.0 0.00 0.00 0.00 71 1012.1
20260507044805 60 257 0.0 0.0 0.00 0.00 0.00 71 1012.1
20260507044606 60 257 0.0 3.0 0.00 0.00 0.00 71 1012.1
20260507044414 60 257 1.0 4.0 0.00 0.00 0.00 71 1012.0
20260507044321 60 259 1.0 6.0 0.00 0.00 0.00 71 1012.0
20260507044251 60 259 1.0 6.0 0.00 0.00 0.00 71 1012.0
20260507044224 60 259 1.0 6.0 0.00 0.00 0.00 71 1011.9
20260507043819 60 260 0.0 6.0 0.00 0.00 0.00 72 1012.0
20260507043406 60 260 0.0 6.0 0.00 0.00 0.00 72 1012.0
20260507043317 60 260 0.0 2.0 0.00 0.00 0.00 72 1011.9
20260507043246 60 260 0.0 2.0 0.00 0.00 0.00 72 1011.9
20260507042807 60 260 0.0 0.0 0.00 0.00 0.00 72 1011.9
20260507042606 59 260 0.0 0.0 0.00 0.00 0.00 72 1011.9
20260507042407 59 260 0.0 0.0 0.00 0.00 0.00 72 1011.9
20260507042206 59 260 0.0 0.0 0.00 0.00 0.00 72 1012.0
20260507042101 59 260 0.0 0.0 0.00 0.00 0.00 72 1012.0
20260507042009 59 260 0.0 0.0 0.00 0.00 0.00 72 1011.9
20260507041807 59 260 0.0 4.0 0.00 0.00 0.00 72 1012.0
20260507041606 59 260 0.0 4.0 0.00 0.00 0.00 72 1011.9
20260507041407 59 261 0.0 4.0 0.00 0.00 0.00 72 1012.0
20260507041207 59 261 0.0 4.0 0.00 0.00 0.00 72 1012.0
20260507041102 59 261 0.0 4.0 0.00 0.00 0.00 72 1011.9
20260507041007 59 261 0.0 4.0 0.00 0.00 0.00 72 1011.9
20260507040807 59 261 0.0 3.0 0.00 0.00 0.00 72 1011.9
20260507040607 59 261 0.0 3.0 0.00 0.00 0.00 72 1011.9
20260507040408 59 261 0.0 3.0 0.00 0.00 0.00 72 1011.8
20260507040207 59 261 0.0 4.0 0.00 0.00 0.00 72 1011.8
20260507040124 59 261 0.0 4.0 0.00 0.00 0.00 72 1011.8
20260507040041 59 261 0.0 4.0 0.00 0.00 0.00 72 1011.8
20260507035948 59 261 1.0 4.0 0.00 0.00 0.00 72 1011.8
20260507035639 59 261 1.0 4.0 0.00 0.00 0.00 72 1011.7
20260507035550 59 261 1.0 4.0 0.00 0.00 0.00 72 1011.8
20260507035457 59 261 1.0 4.0 0.00 0.00 0.00 73 1011.8
20260507035423 59 261 1.0 4.0 0.00 0.00 0.00 73 1011.7
20260507035053 59 236 1.0 5.0 0.00 0.00 0.00 73 1011.7
20260507034954 59 223 1.0 5.0 0.00 0.00 0.00 73 1011.6
20260507034906 59 259 1.0 5.0 0.00 0.00 0.00 73 1011.6
20260507034504 59 259 2.0 6.0 0.00 0.00 0.00 73 1011.7
20260507033618 59 239 1.0 6.0 0.00 0.00 0.00 73 1011.7
20260507033509 59 274 1.0 6.0 0.00 0.00 0.00 73 1011.6
20260507033413 59 243 0.0 6.0 0.00 0.00 0.00 73 1011.6
20260507033344 59 262 0.0 4.0 0.00 0.00 0.00 73 1011.6
20260507032611 59 259 0.0 4.0 0.00 0.00 0.00 73 1011.5
20260507032554 59 259 0.0 4.0 0.00 0.00 0.00 73 1011.5
20260507032353 58 259 1.0 4.0 0.00 0.00 0.00 73 1011.5
20260507032216 58 238 1.0 4.0 0.00 0.00 0.00 73 1011.6
20260507032143 58 237 1.0 4.0 0.00 0.00 0.00 73 1011.6
20260507032055 58 236 1.0 4.0 0.00 0.00 0.00 73 1011.6
20260507031613 58 238 1.0 4.0 0.00 0.00 0.00 73 1011.6
20260507031552 58 234 1.0 4.0 0.00 0.00 0.00 73 1011.6
20260507031349 58 248 1.0 4.0 0.00 0.00 0.00 73 1011.5
20260507031151 58 260 1.0 6.0 0.00 0.00 0.00 73 1011.5
20260507031103 58 259 1.0 6.0 0.00 0.00 0.00 73 1011.5
20260507030949 58 259 1.0 6.0 0.00 0.00 0.00 73 1011.5
20260507030746 58 223 1.0 6.0 0.00 0.00 0.00 73 1011.6
20260507030601 58 263 2.0 6.0 0.00 0.00 0.00 73 1011.5
20260507030543 58 263 2.0 6.0 0.00 0.00 0.00 73 1011.5
20260507030343 58 255 2.0 6.0 0.00 0.00 0.00 73 1011.6
20260507030143 58 257 3.0 6.0 0.00 0.00 0.00 73 1011.5
20260507030101 58 252 3.0 6.0 0.00 0.00 0.00 73 1011.5
20260507025957 58 255 3.0 6.0 0.00 0.00 0.00 73 1011.5
20260507025856 58 246 3.0 6.0 0.00 0.00 0.00 73 1011.5
20260507025541 58 263 3.0 7.0 0.00 0.00 0.00 73 1011.5
20260507025341 58 266 3.0 7.0 0.00 0.00 0.00 73 1011.5
20260507025142 58 263 3.0 7.0 0.00 0.00 0.00 73 1011.4
20260507025101 58 256 3.0 7.0 0.00 0.00 0.00 73 1011.5
20260507024943 58 255 3.0 7.0 0.00 0.00 0.00 72 1011.4
20260507024814 59 262 3.0 7.0 0.00 0.00 0.00 72 1011.5
20260507024732 59 255 2.0 7.0 0.00 0.00 0.00 72 1011.4
20260507024712 59 260 2.0 7.0 0.00 0.00 0.00 72 1011.4
20260507024153 59 257 2.0 7.0 0.00 0.00 0.00 72 1011.4
20260507024133 59 258 2.0 7.0 0.00 0.00 0.00 72 1011.5
20260507024047 59 246 2.0 7.0 0.00 0.00 0.00 72 1011.4
20260507023605 59 253 1.0 5.0 0.00 0.00 0.00 72 1011.4
20260507023536 59 252 1.0 5.0 0.00 0.00 0.00 71 1011.4
20260507023335 59 244 1.0 5.0 0.00 0.00 0.00 71 1011.3
20260507023136 59 230 1.0 5.0 0.00 0.00 0.00 71 1011.3
20260507023103 59 230 1.0 5.0 0.00 0.00 0.00 71 1011.4
20260507022934 60 243 1.0 5.0 0.00 0.00 0.00 71 1011.4
20260507022737 60 244 1.0 4.0 0.00 0.00 0.00 71 1011.4
20260507022656 60 232 1.0 4.0 0.00 0.00 0.00 71 1011.3
20260507022632 60 232 1.0 4.0 0.00 0.00 0.00 71 1011.3
20260507022543 60 232 1.0 4.0 0.00 0.00 0.00 71 1011.3
20260507022439 60 232 1.0 4.0 0.00 0.00 0.00 71 1011.4
20260507022353 60 232 1.0 4.0 0.00 0.00 0.00 71 1011.4
20260507021335 60 235 0.0 3.0 0.00 0.00 0.00 71 1011.4
20260507021135 60 235 0.0 3.0 0.00 0.00 0.00 71 1011.4
20260507021103 60 235 0.0 3.0 0.00 0.00 0.00 71 1011.3
20260507020934 60 235 0.0 1.0 0.00 0.00 0.00 71 1011.4
20260507020734 60 235 0.0 1.0 0.00 0.00 0.00 71 1011.4
20260507020606 60 235 0.0 1.0 0.00 0.00 0.00 71 1011.4
20260507020535 60 235 0.0 1.0 0.00 0.00 0.00 71 1011.4
20260507020444 60 235 0.0 3.0 0.00 0.00 0.00 71 1011.3
20260507020353 60 235 0.0 3.0 0.00 0.00 0.00 72 1011.4
20260507020042 60 235 0.0 3.0 0.00 0.00 0.00 72 1011.4
20260507015601 59 235 0.0 3.0 0.00 0.00 0.00 72 1011.4
20260507015527 59 235 0.0 3.0 0.00 0.00 0.00 72 1011.4
20260507015328 59 235 1.0 5.0 0.00 0.00 0.00 72 1011.3
20260507015222 59 235 1.0 5.0 0.00 0.00 0.00 72 1011.3
20260507014720 59 235 1.0 5.0 0.00 0.00 0.00 72 1011.3
20260507014603 59 235 1.0 5.0 0.00 0.00 0.00 72 1011.3
20260507014525 59 235 1.0 5.0 0.00 0.00 0.00 72 1011.3
20260507014433 59 241 0.0 3.0 0.00 0.00 0.00 72 1011.3
20260507014109 59 242 0.0 3.0 0.00 0.00 0.00 72 1011.3
20260507014020 59 245 0.0 3.0 0.00 0.00 0.00 73 1011.3
20260507013602 59 283 0.0 0.0 0.00 0.00 0.00 73 1011.2
20260507013513 59 283 0.0 0.0 0.00 0.00 0.00 73 1011.2
20260507013416 59 283 0.0 0.0 0.00 0.00 0.00 72 1011.2
20260507013327 59 268 0.0 2.0 0.00 0.00 0.00 72 1011.2
20260507012916 59 267 0.0 2.0 0.00 0.00 0.00 72 1011.2
20260507012714 59 267 0.0 4.0 0.00 0.00 0.00 72 1011.3
20260507012603 59 265 0.0 4.0 0.00 0.00 0.00 72 1011.2
20260507012516 59 265 0.0 4.0 0.00 0.00 0.00 72 1011.2
20260507012416 59 265 1.0 4.0 0.00 0.00 0.00 72 1011.2
20260507012101 59 238 1.0 4.0 0.00 0.00 0.00 72 1011.2
20260507011938 59 237 1.0 4.0 0.00 0.00 0.00 72 1011.2
20260507011841 59 242 1.0 5.0 0.00 0.00 0.00 72 1011.3
20260507011508 59 242 1.0 5.0 0.00 0.00 0.00 72 1011.3
20260507011308 59 235 1.0 5.0 0.00 0.00 0.00 72 1011.3
20260507011111 59 235 0.0 5.0 0.00 0.00 0.00 72 1011.3
20260507011103 59 235 1.0 5.0 0.00 0.00 0.00 72 1011.3
20260507010910 59 239 1.0 5.0 0.00 0.00 0.00 72 1011.3
20260507010706 59 253 2.0 5.0 0.00 0.00 0.00 72 1011.2
20260507010603 59 253 2.0 7.0 0.00 0.00 0.00 72 1011.2
20260507010507 59 226 2.0 7.0 0.00 0.00 0.00 72 1011.3
20260507010412 59 225 2.0 7.0 0.00 0.00 0.00 72 1011.2
20260507010323 59 225 2.0 7.0 0.00 0.00 0.00 72 1011.2
20260507005907 59 239 1.0 7.0 0.00 0.00 0.00 72 1011.2
20260507005706 59 232 1.0 7.0 0.00 0.00 0.00 72 1011.2
20260507005601 59 212 1.0 4.0 0.00 0.00 0.00 72 1011.2
20260507005506 59 232 1.0 4.0 0.00 0.00 0.00 72 1011.2
20260507005307 60 240 0.0 4.0 0.00 0.00 0.00 72 1011.2
20260507005120 60 218 0.0 3.0 0.00 0.00 0.00 72 1011.3
20260507005105 60 218 0.0 3.0 0.00 0.00 0.00 72 1011.3
20260507004903 59 217 0.0 4.0 0.00 0.00 0.00 72 1011.3
20260507004701 60 217 0.0 4.0 0.00 0.00 0.00 72 1011.3
20260507004604 60 217 0.0 4.0 0.00 0.00 0.00 72 1011.2
20260507004508 60 211 0.0 4.0 0.00 0.00 0.00 72 1011.3
20260507004333 60 292 0.0 4.0 0.00 0.00 0.00 72 1011.2
20260507004249 60 292 0.0 4.0 0.00 0.00 0.00 72 1011.2
20260507004240 60 292 0.0 4.0 0.00 0.00 0.00 72 1011.2
20260507003806 60 229 1.0 4.0 0.00 0.00 0.00 72 1011.2
20260507003744 60 215 1.0 4.0 0.00 0.00 0.00 72 1011.1
20260507003249 60 215 1.0 5.0 0.00 0.00 0.00 72 1011.2
20260507003103 60 215 1.0 5.0 0.00 0.00 0.00 72 1011.1
20260507003046 60 215 1.0 5.0 0.00 0.00 0.00 72 1011.1
20260507002847 60 215 1.0 5.0 0.00 0.00 0.00 72 1011.1
20260507002646 60 231 1.0 5.0 0.00 0.00 0.00 72 1011.0
20260507002604 60 231 0.0 5.0 0.00 0.00 0.00 72 1011.2
20260507002447 60 232 0.0 3.0 0.00 0.00 0.00 72 1011.1
20260507002252 60 253 0.0 1.0 0.00 0.00 0.00 72 1011.1
20260507002210 60 250 0.0 1.0 0.00 0.00 0.00 72 1011.1
20260507002158 60 251 0.0 1.0 0.00 0.00 0.00 72 1011.1
20260507001641 60 259 0.0 1.0 0.00 0.00 0.00 72 1011.1
20260507001603 60 259 0.0 1.0 0.00 0.00 0.00 72 1011.1
20260507001443 60 259 0.0 7.0 0.00 0.00 0.00 73 1011.1
20260507001249 60 259 0.0 7.0 0.00 0.00 0.00 72 1011.1
20260507001208 60 259 1.0 7.0 0.00 0.00 0.00 73 1011.2
20260507001152 60 259 1.0 7.0 0.00 0.00 0.00 73 1011.2
20260507000726 60 259 1.0 7.0 0.00 0.00 0.00 73 1011.1
20260507000708 60 206 1.0 7.0 0.00 0.00 0.00 73 1011.2
20260507000632 59 205 2.0 7.0 0.00 0.00 0.00 73 1011.2
20260507000539 59 192 2.0 7.0 0.00 0.00 0.00 74 1011.3
20260507000459 59 213 2.0 7.0 0.00 0.00 0.00 74 1011.3
20260506235831 60 275 1.0 7.0 0.00 0.00 0.00 74 1011.2
20260506235437 60 236 1.0 5.0 0.00 0.00 0.00 74 1011.1
20260506235236 60 242 0.0 4.0 0.00 0.00 0.00 74 1011.1
20260506235101 60 288 0.0 4.0 0.00 0.00 0.00 73 1011.1
20260506235039 60 292 0.0 2.0 0.00 0.00 0.00 73 1011.1
20260506234835 60 292 0.0 2.0 0.00 0.00 0.00 73 1011.0
20260506234636 60 297 0.0 2.0 0.00 0.00 0.00 73 1011.0
20260506234604 60 298 0.0 2.0 0.00 0.00 0.00 73 1011.0
20260506234435 60 320 0.0 1.0 0.00 0.00 0.00 73 1011.0
20260506234235 60 321 0.0 0.0 0.00 0.00 0.00 72 1011.0
20260506234104 60 321 0.0 0.0 0.00 0.00 0.00 72 1011.0
20260506234042 60 321 0.0 0.0 0.00 0.00 0.00 73 1011.0
20260506233833 60 321 0.0 0.0 0.00 0.00 0.00 72 1011.0
20260506233634 61 321 0.0 2.0 0.00 0.00 0.00 72 1011.0
20260506233601 61 321 0.0 2.0 0.00 0.00 0.00 73 1010.9
20260506233433 61 321 0.0 2.0 0.00 0.00 0.00 73 1011.0
20260506233335 61 321 0.0 4.0 0.00 0.00 0.00 72 1011.1
20260506233258 61 221 0.0 4.0 0.00 0.00 0.00 72 1011.0
20260506233236 61 221 0.0 4.0 0.00 0.00 0.00 72 1011.0
20260506232602 61 225 0.0 4.0 0.00 0.00 0.00 72 1011.1
20260506232428 61 225 0.0 4.0 0.00 0.00 0.00 73 1011.1
20260506232225 61 235 0.0 1.0 0.00 0.00 0.00 73 1011.1
20260506232102 61 236 0.0 1.0 0.00 0.00 0.00 73 1011.0
20260506232024 61 236 0.0 1.0 0.00 0.00 0.00 73 1011.0
20260506231824 61 236 0.0 1.0 0.00 0.00 0.00 73 1011.0
20260506231729 61 235 0.0 1.0 0.00 0.00 0.00 73 1011.0
20260506231716 61 236 0.0 1.0 0.00 0.00 0.00 73 1011.1
20260506231251 61 235 0.0 0.0 0.00 0.00 0.00 74 1011.1
20260506231219 60 235 0.0 0.0 0.00 0.00 0.00 74 1011.1
20260506231155 60 235 0.0 0.0 0.00 0.00 0.00 74 1011.1
20260506231054 60 235 0.0 3.0 0.00 0.00 0.00 74 1011.1
20260506230934 60 235 0.0 3.0 0.00 0.00 0.00 75 1011.1
20260506230631 60 235 0.0 3.0 0.00 0.00 0.00 75 1011.2
20260506230535 60 235 0.0 3.0 0.00 0.00 0.00 75 1011.2
20260506225915 60 248 1.0 6.0 0.00 0.00 0.00 75 1011.3
20260506225825 60 248 2.0 6.0 0.00 0.00 0.00 75 1011.3
20260506225815 60 249 2.0 6.0 0.00 0.00 0.00 75 1011.4
20260506225732 60 249 2.0 6.0 0.00 0.00 0.00 75 1011.3
20260506225125 60 252 1.0 6.0 0.00 0.00 0.00 74 1011.4
20260506224614 61 262 0.0 3.0 0.00 0.00 0.00 74 1011.4
20260506224600 61 262 0.0 2.0 0.00 0.00 0.00 74 1011.4
20260506224412 61 232 0.0 2.0 0.00 0.00 0.00 74 1011.3
20260506224213 61 232 0.0 3.0 0.00 0.00 0.00 74 1011.3
20260506224100 61 232 0.0 3.0 0.00 0.00 0.00 74 1011.3
20260506224012 61 232 0.0 3.0 0.00 0.00 0.00 74 1011.3
20260506223812 61 232 0.0 3.0 0.00 0.00 0.00 74 1011.2
20260506223613 61 232 0.0 3.0 0.00 0.00 0.00 74 1011.3
20260506223558 61 232 0.0 3.0 0.00 0.00 0.00 74 1011.2
20260506223414 61 234 0.0 3.0 0.00 0.00 0.00 74 1011.3
20260506223214 61 234 0.0 4.0 0.00 0.00 0.00 74 1011.3
20260506223057 61 230 0.0 4.0 0.00 0.00 0.00 74 1011.3
20260506223013 61 247 0.0 4.0 0.00 0.00 0.00 74 1011.3
20260506222813 61 289 0.0 4.0 0.00 0.00 0.00 74 1011.3
20260506222613 61 289 0.0 4.0 0.00 0.00 0.00 74 1011.4
20260506222556 61 289 0.0 4.0 0.00 0.00 0.00 74 1011.3
20260506222412 61 290 0.0 4.0 0.00 0.00 0.00 74 1011.4
20260506222212 61 279 0.0 0.0 0.00 0.00 0.00 74 1011.4
20260506222056 61 271 0.0 0.0 0.00 0.00 0.00 74 1011.3
20260506222012 61 259 0.0 0.0 0.00 0.00 0.00 74 1011.3
20260506221813 61 231 0.0 0.0 0.00 0.00 0.00 74 1011.3
20260506221609 61 285 0.0 0.0 0.00 0.00 0.00 74 1011.3
20260506221553 61 285 0.0 0.0 0.00 0.00 0.00 74 1011.3
20260506221412 61 285 0.0 0.0 0.00 0.00 0.00 74 1011.2
20260506221209 61 285 0.0 0.0 0.00 0.00 0.00 74 1011.2
20260506221053 61 285 0.0 0.0 0.00 0.00 0.00 74 1011.2
20260506221008 61 285 0.0 0.0 0.00 0.00 0.00 74 1011.2
20260506220809 61 285 0.0 0.0 0.00 0.00 0.00 74 1011.2
20260506220717 62 263 0.0 4.0 0.00 0.00 0.00 74 1011.2
20260506220703 61 263 0.0 4.0 0.00 0.00 0.00 74 1011.2
20260506220617 62 263 0.0 4.0 0.00 0.00 0.00 73 1011.2
20260506220243 62 228 0.0 4.0 0.00 0.00 0.00 73 1011.3
20260506215806 62 248 0.0 4.0 0.00 0.00 0.00 73 1011.3
20260506215604 62 276 0.0 3.0 0.00 0.00 0.00 73 1011.2
20260506215548 62 286 0.0 3.0 0.00 0.00 0.00 73 1011.2
20260506215411 62 286 0.0 3.0 0.00 0.00 0.00 72 1011.3
20260506215316 62 286 0.0 3.0 0.00 0.00 0.00 72 1011.2
20260506215245 63 288 0.0 3.0 0.00 0.00 0.00 72 1011.2
20260506214806 63 259 0.0 0.0 0.00 0.00 0.00 71 1011.2
20260506214541 63 259 0.0 0.0 0.00 0.00 0.00 72 1011.2
20260506214406 63 250 0.0 0.0 0.00 0.00 0.00 72 1011.1
20260506214207 63 201 0.0 0.0 0.00 0.00 0.00 72 1011.2
20260506214041 63 201 0.0 0.0 0.00 0.00 0.00 72 1011.2
20260506214004 63 201 0.0 0.0 0.00 0.00 0.00 72 1011.2
20260506213802 63 201 0.0 5.0 0.00 0.00 0.00 72 1011.2
20260506213538 63 201 0.0 5.0 0.00 0.00 0.00 72 1011.1
20260506213359 63 201 0.0 5.0 0.00 0.00 0.00 72 1011.1
20260506213157 63 223 0.0 5.0 0.00 0.00 0.00 72 1011.1
20260506213038 63 186 0.0 5.0 0.00 0.00 0.00 72 1011.1
20260506212956 63 190 0.0 5.0 0.00 0.00 0.00 72 1011.2
20260506212856 63 222 0.0 0.0 0.00 0.00 0.00 72 1011.1
20260506212537 63 273 0.0 0.0 0.00 0.00 0.00 72 1011.1
20260506212353 63 273 0.0 0.0 0.00 0.00 0.00 72 1011.2
20260506212156 63 273 0.0 0.0 0.00 0.00 0.00 72 1011.2
20260506212037 63 273 0.0 0.0 0.00 0.00 0.00 72 1011.1
20260506211948 63 273 0.0 0.0 0.00 0.00 0.00 72 1011.2
20260506211801 63 273 0.0 0.0 0.00 0.00 0.00 72 1011.2
20260506211703 63 273 0.0 0.0 0.00 0.00 0.00 72 1011.2
20260506211618 63 273 0.0 0.0 0.00 0.00 0.00 72 1011.2
20260506211252 64 273 0.0 0.0 0.00 0.00 0.00 72 1011.2
20260506210915 64 273 0.0 0.0 0.00 0.00 0.00 72 1011.2
20260506210747 64 273 0.0 0.0 0.00 0.00 0.00 71 1011.2
20260506210406 64 273 0.0 0.0 0.00 0.00 0.00 71 1011.1
20260506210311 64 273 0.0 0.0 0.00 0.00 0.00 71 1011.2
20260506205936 64 273 0.0 0.0 0.00 0.00 0.00 71 1011.2
20260506205734 64 273 0.0 0.0 0.00 0.00 0.00 71 1011.2
20260506205534 64 273 0.0 0.0 0.00 0.00 0.00 70 1011.2
20260506205335 65 273 0.0 0.0 0.00 0.00 0.00 71 1011.2
20260506205134 65 272 0.0 0.0 0.00 0.00 0.00 70 1011.1
20260506205032 65 273 0.0 0.0 0.00 0.00 0.00 70 1011.1
20260506204941 65 273 0.0 0.0 0.00 0.00 0.00 70 1011.0
20260506204839 65 273 0.0 0.0 0.00 0.00 0.00 70 1011.0
20260506204747 65 272 0.0 0.0 0.00 0.00 0.00 70 1011.0
20260506204335 65 273 0.0 0.0 0.00 0.00 0.00 70 1011.0
20260506204136 65 273 0.0 0.0 0.00 0.00 0.00 70 1011.2
20260506204029 65 272 0.0 0.0 0.00 0.00 0.00 70 1011.2
20260506203935 65 273 0.0 0.0 0.00 0.00 0.00 70 1011.2
20260506203735 65 273 0.0 0.0 0.00 0.00 0.00 69 1011.1
20260506203550 65 273 0.0 0.0 0.00 0.00 0.00 69 1011.1
20260506203334 65 273 0.0 0.0 0.00 0.00 0.00 69 1011.1
20260506203137 65 273 0.0 0.0 0.00 0.00 0.00 69 1011.2
20260506203033 65 273 0.0 0.0 0.00 0.00 0.00 69 1011.2
20260506202934 65 273 0.0 0.0 0.00 0.00 0.00 69 1011.2
20260506202738 65 273 0.0 0.0 0.00 0.00 0.00 69 1011.2
20260506202536 66 273 0.0 0.0 0.00 0.00 0.00 69 1011.1
20260506202342 66 273 0.0 0.0 0.00 0.00 0.00 69 1011.1
20260506202240 66 273 0.0 0.0 0.00 0.00 0.00 69 1011.1
20260506202213 66 273 0.0 0.0 0.00 0.00 0.00 69 1011.1
20260506202144 66 273 0.0 0.0 0.00 0.00 0.00 69 1011.1
20260506202055 66 273 0.0 0.0 0.00 0.00 0.00 68 1011.0
20260506201343 66 273 0.0 0.0 0.00 0.00 0.00 68 1011.0
20260506201248 66 273 0.0 0.0 0.00 0.00 0.00 68 1011.1
20260506201222 66 273 0.0 0.0 0.00 0.00 0.00 68 1011.1
20260506201153 66 273 0.0 0.0 0.00 0.00 0.00 68 1011.0
20260506200759 66 273 0.0 0.0 0.00 0.00 0.00 68 1011.0
20260506200335 66 273 0.0 0.0 0.00 0.00 0.00 68 1011.1
20260506200137 66 273 0.0 0.0 0.00 0.00 0.00 68 1011.0
20260506200033 66 273 0.0 0.0 0.00 0.00 0.00 68 1011.0
20260506195934 66 273 0.0 0.0 0.00 0.00 0.00 68 1010.9
20260506195736 66 273 0.0 0.0 0.00 0.00 0.00 68 1011.0
20260506195538 66 273 0.0 0.0 0.00 0.00 0.00 68 1011.0
20260506195446 66 273 0.0 0.0 0.00 0.00 0.00 68 1010.9
20260506195355 66 273 0.0 0.0 0.00 0.00 0.00 68 1010.9
20260506195323 66 273 0.0 0.0 0.00 0.00 0.00 68 1010.9
20260506194639 66 273 0.0 0.0 0.00 0.00 0.00 68 1010.9
20260506194136 66 273 0.0 0.0 0.00 0.00 0.00 68 1010.9
20260506194035 66 273 0.0 0.0 0.00 0.00 0.00 68 1010.9
20260506193934 66 273 0.0 0.0 0.00 0.00 0.00 68 1010.9
20260506193733 66 273 0.0 0.0 0.00 0.00 0.00 68 1010.9
20260506193535 67 275 0.0 0.0 0.00 0.00 0.00 68 1010.9
20260506193336 67 275 0.0 0.0 0.00 0.00 0.00 68 1010.7
20260506193137 67 275 0.0 0.0 0.00 0.00 0.00 67 1010.7
20260506193030 67 273 0.0 0.0 0.00 0.00 0.00 67 1010.5
20260506192937 67 273 0.0 0.0 0.00 0.00 0.00 67 1010.6
20260506192734 67 273 0.0 0.0 0.00 0.00 0.00 67 1010.5
20260506192534 67 273 0.0 0.0 0.00 0.00 0.00 67 1010.5
20260506192406 67 272 0.0 0.0 0.00 0.00 0.00 67 1010.4
20260506192309 67 258 0.0 0.0 0.00 0.00 0.00 67 1010.4
20260506191942 67 258 1.0 7.0 0.00 0.00 0.00 67 1010.3
20260506191849 67 258 1.0 7.0 0.00 0.00 0.00 67 1010.2
20260506191746 67 257 1.0 7.0 0.00 0.00 0.00 66 1010.2
20260506191427 67 255 1.0 7.0 0.00 0.00 0.00 66 1010.1
20260506191333 67 257 1.0 7.0 0.00 0.00 0.00 66 1010.2
20260506191308 68 257 1.0 7.0 0.00 0.00 0.00 66 1010.2
20260506190936 68 269 1.0 6.0 0.00 0.00 0.00 66 1010.3
20260506190624 68 274 1.0 6.0 0.00 0.00 0.00 66 1010.2
20260506190532 68 271 1.0 6.0 0.00 0.00 0.00 65 1010.2
20260506190408 69 249 1.0 6.0 0.00 0.00 0.00 65 1010.2
20260506190045 69 245 1.0 6.0 0.00 0.00 0.00 64 1010.0
20260506185535 69 250 0.0 6.0 0.00 0.00 0.00 63 1010.0
20260506185341 70 259 0.0 6.0 0.00 0.00 0.00 63 1010.0
20260506185244 70 233 0.0 3.0 0.00 0.00 0.00 62 1010.0
20260506185215 70 288 0.0 3.0 0.00 0.00 0.00 62 1010.0
20260506184736 70 290 1.0 7.0 0.00 0.00 0.00 60 1010.0
20260506184535 70 273 2.0 11.0 0.00 0.00 0.00 60 1010.0
20260506184335 70 302 3.0 11.0 0.00 0.00 0.00 58 1010.0
20260506184145 70 308 4.0 11.0 0.00 0.00 0.00 58 1009.8
20260506184117 70 342 5.0 11.0 0.00 0.00 0.00 58 1009.8
20260506184041 70 308 6.0 11.0 0.00 0.00 0.00 58 1009.8
20260506183938 70 328 6.0 11.0 0.00 0.00 0.00 58 1009.8
20260506183838 70 351 6.0 12.0 0.00 0.00 0.00 59 1009.8
20260506183443 70 328 7.0 12.0 0.00 0.00 0.00 59 1009.7
20260506183416 70 323 7.0 12.0 0.00 0.00 0.00 59 1009.6
20260506183313 70 330 6.0 12.0 0.00 0.00 0.00 58 1009.6
20260506183219 70 318 6.0 12.0 0.00 0.00 0.00 59 1009.6
20260506183125 70 351 5.0 11.0 0.00 0.00 0.00 58 1009.6
20260506183035 70 296 4.0 10.0 0.00 0.00 0.00 59 1009.6
20260506182703 71 324 2.0 9.0 0.00 0.00 0.00 59 1009.6
20260506182636 71 305 2.0 9.0 0.00 0.00 0.00 59 1009.6
20260506182544 71 340 1.0 6.0 0.00 0.00 0.00 58 1009.5
20260506182444 71 335 1.0 5.0 0.00 0.00 0.00 58 1009.5
20260506182143 71 278 1.0 7.0 0.00 0.00 0.00 58 1009.5
20260506181821 71 351 1.0 7.0 0.00 0.00 0.00 58 1009.6
20260506180051 71 314 2.0 8.0 0.00 0.00 0.00 58 1009.5
20260506175935 71 312 2.0 8.0 0.00 0.00 0.00 58 1009.5
20260506175735 71 321 2.0 9.0 0.00 0.00 0.00 58 1009.4
20260506175554 71 332 2.0 9.0 0.00 0.00 0.00 58 1009.4
20260506175500 71 300 2.0 9.0 0.00 0.00 0.00 58 1009.5
20260506175408 71 312 2.0 9.0 0.00 0.00 0.00 58 1009.4
20260506175052 72 356 2.0 9.0 0.00 0.00 0.00 58 1009.4
20260506174945 72 324 2.0 9.0 0.00 0.00 0.00 58 1009.3
20260506174850 72 346 2.0 9.0 0.00 0.00 0.00 58 1009.3
20260506174134 72 307 3.0 9.0 0.00 0.00 0.00 58 1009.3
20260506174030 72 296 3.0 10.0 0.00 0.00 0.00 58 1009.1
20260506173935 72 334 3.0 10.0 0.00 0.00 0.00 58 1009.2
20260506173736 72 304 3.0 10.0 0.00 0.00 0.00 57 1009.2
20260506173532 72 332 4.0 10.0 0.00 0.00 0.00 57 1009.0
20260506173336 72 319 4.0 11.0 0.00 0.00 0.00 57 1009.1
20260506173137 72 332 3.0 11.0 0.00 0.00 0.00 57 1009.1
20260506173051 72 317 3.0 11.0 0.00 0.00 0.00 57 1009.0
20260506172949 72 339 3.0 11.0 0.00 0.00 0.00 57 1009.1
20260506172851 72 317 3.0 11.0 0.00 0.00 0.00 57 1009.0
20260506172752 72 336 2.0 11.0 0.00 0.00 0.00 57 1009.0
20260506172443 72 319 1.0 8.0 0.00 0.00 0.00 57 1009.0
20260506172029 73 303 2.0 8.0 0.00 0.00 0.00 57 1009.0
20260506171936 73 317 2.0 8.0 0.00 0.00 0.00 57 1009.0
20260506171734 73 340 2.0 8.0 0.00 0.00 0.00 57 1008.9
20260506171533 73 329 1.0 8.0 0.00 0.00 0.00 57 1008.9
20260506171334 73 327 1.0 6.0 0.00 0.00 0.00 57 1009.0
20260506171134 73 305 1.0 6.0 0.00 0.00 0.00 57 1008.9
20260506171030 73 335 1.0 6.0 0.00 0.00 0.00 56 1008.9
20260506170935 73 323 0.0 5.0 0.00 0.00 0.00 56 1009.0
20260506170733 73 332 0.0 5.0 0.00 0.00 0.00 56 1008.9
20260506170534 73 317 0.0 5.0 0.00 0.00 0.00 56 1008.9
20260506170335 73 320 0.0 1.0 0.00 0.00 0.00 56 1008.9
20260506170136 73 332 0.0 0.0 0.00 0.00 0.00 56 1008.9
20260506170041 73 332 0.0 0.0 0.00 0.00 0.00 56 1008.8
20260506170007 73 332 0.0 0.0 0.00 0.00 0.00 56 1008.8
20260506165842 73 301 0.0 6.0 0.00 0.00 0.00 56 1008.8
20260506165532 73 292 0.0 6.0 0.00 0.00 0.00 56 1008.8
20260506165406 73 304 0.0 6.0 0.00 0.00 0.00 56 1008.8
20260506165311 74 294 0.0 6.0 0.00 0.00 0.00 56 1008.8
20260506164947 74 288 0.0 6.0 0.00 0.00 0.00 56 1008.8
20260506164851 74 316 0.0 0.0 0.00 0.00 0.00 55 1008.8
20260506164540 74 286 0.0 3.0 0.00 0.00 0.00 55 1008.8
20260506164450 74 281 1.0 6.0 0.00 0.00 0.00 55 1008.8
20260506164401 74 297 1.0 6.0 0.00 0.00 0.00 55 1008.8
20260506164046 74 333 1.0 6.0 0.00 0.00 0.00 55 1008.8
20260506163626 74 303 2.0 6.0 0.00 0.00 0.00 54 1008.9
20260506163526 74 292 2.0 6.0 0.00 0.00 0.00 54 1008.8
20260506163438 74 324 2.0 6.0 0.00 0.00 0.00 54 1008.7
20260506163409 74 309 2.0 6.0 0.00 0.00 0.00 54 1008.8
20260506163031 75 305 2.0 8.0 0.00 0.00 0.00 53 1008.7
20260506162905 75 331 2.0 8.0 0.00 0.00 0.00 53 1008.7
20260506162237 75 338 3.0 10.0 0.00 0.00 0.00 53 1008.7
20260506161735 75 324 4.0 10.0 0.00 0.00 0.00 53 1008.7
20260506161539 75 329 4.0 10.0 0.00 0.00 0.00 52 1008.7
20260506161334 75 351 4.0 10.0 0.00 0.00 0.00 52 1008.8
20260506161134 75 317 4.0 10.0 0.00 0.00 0.00 52 1008.8
20260506161029 75 302 4.0 10.0 0.00 0.00 0.00 52 1008.8
20260506160935 75 323 4.0 10.0 0.00 0.00 0.00 51 1008.8
20260506160736 76 315 4.0 10.0 0.00 0.00 0.00 51 1008.8
20260506160534 76 329 4.0 10.0 0.00 0.00 0.00 51 1008.7
20260506160335 76 335 4.0 10.0 0.00 0.00 0.00 50 1008.8
20260506160135 76 351 4.0 10.0 0.00 0.00 0.00 50 1008.8
20260506160044 76 311 3.0 10.0 0.00 0.00 0.00 50 1008.7
20260506155937 76 342 4.0 10.0 0.00 0.00 0.00 50 1008.7
20260506155734 76 342 3.0 9.0 0.00 0.00 0.00 49 1008.8
20260506155535 77 356 3.0 9.0 0.00 0.00 0.00 50 1008.7
20260506155335 77 334 4.0 9.0 0.00 0.00 0.00 49 1008.7
20260506155135 77 338 4.0 10.0 0.00 0.00 0.00 49 1008.7
20260506155029 77 319 5.0 10.0 0.00 0.00 0.00 49 1008.7
20260506154935 77 347 4.0 10.0 0.00 0.00 0.00 49 1008.7
20260506154735 77 325 4.0 10.0 0.00 0.00 0.00 48 1008.7
20260506154532 77 310 4.0 10.0 0.00 0.00 0.00 48 1008.7
20260506154334 77 324 4.0 10.0 0.00 0.00 0.00 48 1008.7
20260506154215 77 316 3.0 10.0 0.00 0.00 0.00 48 1008.8
20260506154143 77 313 3.0 9.0 0.00 0.00 0.00 48 1008.8
20260506154105 77 332 3.0 9.0 0.00 0.00 0.00 48 1008.8
20260506154015 78 332 3.0 9.0 0.00 0.00 0.00 47 1008.8
20260506153921 78 329 3.0 10.0 0.00 0.00 0.00 47 1008.9
20260506153617 78 347 3.0 10.0 0.00 0.00 0.00 47 1008.8
20260506152935 77 298 3.0 10.0 0.00 0.00 0.00 47 1008.9
20260506152759 77 344 3.0 10.0 0.00 0.00 0.00 47 1008.9
20260506152532 77 317 2.0 8.0 0.00 0.00 0.00 46 1009.0
20260506152334 77 11 2.0 6.0 0.00 0.00 0.00 46 1008.9
20260506152135 77 333 3.0 9.0 0.00 0.00 0.00 45 1008.9
20260506152031 77 329 3.0 9.0 0.00 0.00 0.00 45 1008.9
20260506151936 77 338 3.0 10.0 0.00 0.00 0.00 45 1008.9
20260506151741 77 319 4.0 11.0 0.00 0.00 0.00 45 1008.9
20260506151645 77 316 3.0 11.0 0.00 0.00 0.00 45 1008.9
20260506151550 77 317 3.0 11.0 0.00 0.00 0.00 45 1008.9
20260506151457 77 315 4.0 11.0 0.00 0.00 0.00 45 1008.9
20260506150807 78 346 3.0 9.0 0.00 0.00 0.00 45 1009.0
20260506150711 78 332 3.0 9.0 0.00 0.00 0.00 44 1008.9
20260506150307 78 329 3.0 8.0 0.00 0.00 0.00 44 1008.9
20260506145933 78 308 3.0 11.0 0.00 0.00 0.00 44 1009.0
20260506145744 78 344 4.0 11.0 0.00 0.00 0.00 44 1008.9
20260506145533 78 340 4.0 11.0 0.00 0.00 0.00 44 1008.9
20260506145333 78 305 4.0 11.0 0.00 0.00 0.00 44 1008.9
20260506145132 78 329 5.0 11.0 0.00 0.00 0.00 43 1008.9
20260506145032 78 351 5.0 11.0 0.00 0.00 0.00 43 1008.9
20260506144938 78 321 5.0 11.0 0.00 0.00 0.00 44 1008.9
20260506144837 78 334 4.0 12.0 0.00 0.00 0.00 43 1008.9
20260506144532 78 351 5.0 12.0 0.00 0.00 0.00 44 1009.0
20260506144332 77 312 5.0 12.0 0.00 0.00 0.00 44 1008.9
20260506144132 77 340 5.0 12.0 0.00 0.00 0.00 44 1009.0
20260506144031 77 314 5.0 12.0 0.00 0.00 0.00 44 1008.9
20260506143938 77 327 6.0 12.0 0.00 0.00 0.00 44 1008.9
20260506143730 77 345 5.0 12.0 0.00 0.00 0.00 44 1009.0
20260506143536 77 351 6.0 12.0 0.00 0.00 0.00 44 1009.0
20260506143532 77 328 6.0 12.0 0.00 0.00 0.00 44 1009.0
20260506143400 77 335 6.0 12.0 0.00 0.00 0.00 44 1009.0
20260506143305 77 328 6.0 12.0 0.00 0.00 0.00 44 1008.9
20260506142925 78 293 6.0 12.0 0.00 0.00 0.00 43 1009.0
20260506142804 78 317 6.0 12.0 0.00 0.00 0.00 43 1009.0
20260506142641 78 304 5.0 12.0 0.00 0.00 0.00 43 1009.0
20260506142634 78 327 5.0 12.0 0.00 0.00 0.00 43 1009.0
20260506142124 79 320 3.0 12.0 0.00 0.00 0.00 42 1008.9
20260506142029 79 322 2.0 12.0 0.00 0.00 0.00 42 1008.9
20260506141928 79 329 2.0 9.0 0.00 0.00 0.00 42 1008.9
20260506141737 79 346 1.0 9.0 0.00 0.00 0.00 42 1008.9
20260506141647 79 342 1.0 8.0 0.00 0.00 0.00 42 1008.8
20260506141640 79 315 1.0 8.0 0.00 0.00 0.00 42 1008.8
20260506141236 80 345 1.0 8.0 0.00 0.00 0.00 42 1008.8
20260506141213 80 287 1.0 8.0 0.00 0.00 0.00 42 1008.8
20260506140722 80 10 1.0 8.0 0.00 0.00 0.00 41 1008.9
20260506140532 80 32 1.0 8.0 0.00 0.00 0.00 41 1008.9
20260506140522 80 15 1.0 8.0 0.00 0.00 0.00 41 1008.9
20260506140323 80 15 1.0 8.0 0.00 0.00 0.00 41 1009.0
20260506140123 80 325 1.0 8.0 0.00 0.00 0.00 41 1008.8
20260506140032 80 351 1.0 8.0 0.00 0.00 0.00 41 1008.9
20260506135922 80 32 1.0 8.0 0.00 0.00 0.00 41 1008.9
20260506135720 80 1 1.0 10.0 0.00 0.00 0.00 40 1008.8
20260506135531 81 1 1.0 10.0 0.00 0.00 0.00 40 1008.7
20260506135518 81 20 1.0 10.0 0.00 0.00 0.00 40 1008.7
20260506135317 81 36 1.0 10.0 0.00 0.00 0.00 41 1008.7
20260506135118 80 38 1.0 10.0 0.00 0.00 0.00 41 1008.7
20260506135029 80 90 1.0 10.0 0.00 0.00 0.00 41 1008.7
20260506134931 80 40 1.0 10.0 0.00 0.00 0.00 41 1008.7
20260506134825 81 48 1.0 9.0 0.00 0.00 0.00 40 1008.8
20260506134515 81 39 1.0 9.0 0.00 0.00 0.00 40 1008.7
20260506134326 81 19 1.0 8.0 0.00 0.00 0.00 40 1008.7
20260506134228 81 47 1.0 9.0 0.00 0.00 0.00 40 1008.8
20260506134207 81 73 1.0 9.0 0.00 0.00 0.00 40 1008.8
20260506133715 81 40 1.0 10.0 0.00 0.00 0.00 39 1008.8
20260506133529 81 80 2.0 10.0 0.00 0.00 0.00 39 1008.8
20260506133514 81 240 2.0 10.0 0.00 0.00 0.00 39 1008.8
20260506133314 81 286 2.0 10.0 0.00 0.00 0.00 39 1008.7
20260506133141 81 61 1.0 10.0 0.00 0.00 0.00 39 1008.8
20260506133116 81 191 1.0 10.0 0.00 0.00 0.00 39 1008.7
20260506133034 81 61 2.0 10.0 0.00 0.00 0.00 39 1008.9
20260506132600 80 127 2.0 10.0 0.00 0.00 0.00 40 1008.8
20260506132510 80 43 2.0 10.0 0.00 0.00 0.00 40 1008.9
20260506132359 80 121 2.0 14.0 0.00 0.00 0.00 40 1008.9
20260506132259 80 118 3.0 16.0 0.00 0.00 0.00 40 1008.9
20260506131908 80 103 3.0 16.0 0.00 0.00 0.00 40 1009.0
20260506131706 80 351 3.0 16.0 0.00 0.00 0.00 40 1009.0
20260506131539 80 86 3.0 16.0 0.00 0.00 0.00 41 1009.0
20260506131523 80 5 3.0 16.0 0.00 0.00 0.00 41 1009.1
20260506131318 80 1 3.0 16.0 0.00 0.00 0.00 41 1009.0
20260506131221 80 6 4.0 12.0 0.00 0.00 0.00 42 1009.1
20260506131201 80 18 4.0 12.0 0.00 0.00 0.00 42 1009.1
20260506130706 80 69 4.0 13.0 0.00 0.00 0.00 40 1009.1
20260506130532 80 322 4.0 13.0 0.00 0.00 0.00 40 1009.1
20260506130511 80 20 4.0 13.0 0.00 0.00 0.00 40 1009.0
20260506130307 81 22 3.0 13.0 0.00 0.00 0.00 39 1009.1
20260506130150 81 56 2.0 13.0 0.00 0.00 0.00 40 1009.1
20260506130131 81 32 2.0 13.0 0.00 0.00 0.00 40 1009.1
20260506130052 81 10 2.0 13.0 0.00 0.00 0.00 40 1009.1
20260506125947 81 306 2.0 11.0 0.00 0.00 0.00 40 1009.2
20260506125644 81 1 1.0 8.0 0.00 0.00 0.00 40 1009.3
20260506125108 81 16 2.0 9.0 0.00 0.00 0.00 41 1009.3
20260506125029 81 64 2.0 9.0 0.00 0.00 0.00 41 1009.3
20260506124907 81 251 2.0 9.0 0.00 0.00 0.00 41 1009.3
20260506124724 81 344 1.0 9.0 0.00 0.00 0.00 41 1009.4
20260506124639 81 24 1.0 9.0 0.00 0.00 0.00 41 1009.4
20260506124623 81 49 1.0 9.0 0.00 0.00 0.00 41 1009.4
20260506124528 81 7 1.0 8.0 0.00 0.00 0.00 41 1009.4
20260506124206 81 274 1.0 8.0 0.00 0.00 0.00 41 1009.4
20260506124127 81 340 0.0 8.0 0.00 0.00 0.00 40 1009.4
20260506124031 81 351 0.0 6.0 0.00 0.00 0.00 40 1009.5
20260506123412 80 32 1.0 4.0 0.00 0.00 0.00 41 1009.5
20260506123029 80 38 1.0 8.0 0.00 0.00 0.00 41 1009.6
20260506122909 80 71 1.0 8.0 0.00 0.00 0.00 41 1009.6
20260506122705 80 80 1.0 8.0 0.00 0.00 0.00 41 1009.7
20260506122557 80 84 1.0 8.0 0.00 0.00 0.00 42 1009.7
20260506122538 80 17 1.0 8.0 0.00 0.00 0.00 42 1009.7
20260506122409 80 88 1.0 8.0 0.00 0.00 0.00 41 1009.7
20260506122030 80 337 1.0 11.0 0.00 0.00 0.00 41 1009.7
20260506121925 80 80 1.0 11.0 0.00 0.00 0.00 41 1010.0
20260506121824 80 47 1.0 11.0 0.00 0.00 0.00 41 1010.0
20260506121503 80 13 1.0 11.0 0.00 0.00 0.00 41 1009.8
20260506121302 81 10 1.0 11.0 0.00 0.00 0.00 41 1009.7
20260506121103 80 90 0.0 4.0 0.00 0.00 0.00 42 1009.7
20260506121030 80 98 0.0 4.0 0.00 0.00 0.00 42 1009.7
20260506120901 80 106 0.0 4.0 0.00 0.00 0.00 43 1009.8
20260506120751 80 26 0.0 4.0 0.00 0.00 0.00 44 1009.8
20260506120709 80 78 1.0 5.0 0.00 0.00 0.00 44 1009.8
20260506120650 80 11 0.0 5.0 0.00 0.00 0.00 44 1010.0
20260506120559 80 107 0.0 5.0 0.00 0.00 0.00 45 1009.8
20260506115858 80 171 0.0 5.0 0.00 0.00 0.00 45 1009.8
20260506115655 79 22 0.0 5.0 0.00 0.00 0.00 45 1010.0
20260506115530 79 26 0.0 5.0 0.00 0.00 0.00 46 1010.2
20260506115456 79 200 0.0 5.0 0.00 0.00 0.00 46 1010.0
20260506115253 79 125 0.0 5.0 0.00 0.00 0.00 46 1010.2
20260506115051 78 120 1.0 7.0 0.00 0.00 0.00 47 1010.2
20260506115030 78 49 1.0 8.0 0.00 0.00 0.00 46 1010.2
20260506114850 78 34 1.0 10.0 0.00 0.00 0.00 46 1010.3
20260506114652 78 319 1.0 10.0 0.00 0.00 0.00 46 1010.4
20260506114530 78 319 1.0 10.0 0.00 0.00 0.00 46 1010.4
20260506114452 78 318 1.0 10.0 0.00 0.00 0.00 46 1010.3
20260506114243 78 327 1.0 10.0 0.00 0.00 0.00 46 1010.4